Location: Mount Kobau Star Party
(49.1167°N, 119.7333°W)
Time: 11:25:15
(UTC-07:00)

Envisat - Pass Details

Date: 22 April 2026
Orbit: 761 x 762 km, 98.4° (Epoch: 17 May)

Event Time Altitude Azimuth Distance (km) Brightness Sun altitude
Rises 03:11:59 0° 19° (NNE) 3,233 7.5 -21.8°
Reaches altitude 10° 03:14:24 10° 26° (NNE) 2,302 6.6 -21.6°
Maximum altitude 03:19:15 45° 98° (E) 1,038 3.8 -21.1°
Enters shadow 03:22:04 23° 159° (SSE) 1,582 4.3 -20.8°
